This is the latest recevied weather packets stored in our database for station/object KF4UQS-14. If no packets are shown the sender has not sent any weather packets the latest 1 day(s).
| Time | Temp. | Humidity | Pressure | Rain* | Wind** | Luminosity | Snow |
|---|---|---|---|---|---|---|---|
| 1836274844 | 16.67° C | 99% | 1018.6 hPa | 0 mm | 0 m/s | 0 W/m² | - |
| 1836274542 | 16.67° C | 99% | 1018.5 hPa | 0 mm | 0 m/s | 0 W/m² | - |
| 1836274396 | 16.67° C | 99% | 1018.5 hPa | 0 mm | 0 m/s | 0 W/m² | - |
| 1836274241 | 16.67° C | 99% | 1018.5 hPa | 0 mm | 0 m/s | 0 W/m² | - |
| 1836273940 | 16.67° C | 99% | 1018.6 hPa | 0 mm | 0 m/s | 0 W/m² | - |
| 1778060321 | 16.11° C | 92% | 1015.3 hPa | 0 mm | 1.34 m/s, 192° | 0 W/m² | - |
| 1778060018 | 16.11° C | 92% | 1015.4 hPa | 0 mm | 1.34 m/s, 180° | 0 W/m² | - |
| 1778059716 | 16.11° C | 92% | 1015.5 hPa | 0 mm | 1.34 m/s, 183° | 0 W/m² | - |
| 1778059414 | 16.11° C | 92% | 1015.6 hPa | 0 mm | 0.89 m/s, 181° | 0 W/m² | - |
| 1778059110 | 16.11° C | 92% | 1015.6 hPa | 0 mm | 1.34 m/s, 186° | 0 W/m² | - |
| 1778058808 | 16.11° C | 92% | 1015.7 hPa | 0 mm | 1.79 m/s, 180° | 0 W/m² | - |
| 1778058505 | 16.11° C | 91% | 1015.6 hPa | 0 mm | 1.79 m/s, 194° | 0 W/m² | - |
| 1778058203 | 16.11° C | 91% | 1015.9 hPa | 0 mm | 1.34 m/s, 161° | 0 W/m² | - |
| 1778057899 | 16.11° C | 91% | 1015.6 hPa | 0 mm | 1.79 m/s, 197° | 0 W/m² | - |
| 1778057595 | 16.11° C | 91% | 1015.7 hPa | 0 mm | 0.89 m/s, 183° | 0 W/m² | - |
| 1778057292 | 16.11° C | 91% | 1015.8 hPa | 0 mm | 0.89 m/s, 197° | 0 W/m² | - |
| 1778056988 | 16.11° C | 90% | 1015.6 hPa | 0 mm | 0.89 m/s, 155° | 0 W/m² | - |
| 1778056685 | 16.67° C | 90% | 1015.6 hPa | 0 mm | 0.89 m/s, 197° | 0 W/m² | - |
| 1778056383 | 16.67° C | 90% | 1015.8 hPa | 0 mm | 1.34 m/s, 174° | 0 W/m² | - |
| 1778056080 | 16.67° C | 90% | 1015.6 hPa | 0 mm | 0.89 m/s, 183° | 0 W/m² | - |
| 1778055776 | 16.67° C | 90% | 1015.5 hPa | 0 mm | 1.34 m/s, 188° | 0 W/m² | - |
| 1778055473 | 16.67° C | 89% | 1015.4 hPa | 0 mm | 0.89 m/s, 180° | 0 W/m² | - |
| 1778055171 | 16.67° C | 89% | 1015.5 hPa | 0 mm | 0.89 m/s, 203° | 0 W/m² | - |
| 1778054869 | 16.67° C | 88% | 1015.4 hPa | 0 mm | 1.34 m/s, 210° | 0 W/m² | - |
| 1778054565 | 16.67° C | 89% | 1015.5 hPa | 0 mm | 1.79 m/s, 184° | 0 W/m² | - |
* Rain latest hour (hover to see other rain measurements)
** Current wind speed in m/s (hover to see current wind gust speed)